#datetime,building,power
2022-06-27T00:00:00,mcc,61.37
2022-06-27T00:01:00,mcc,59.92
2022-06-27T00:02:00,mcc,59.79
2022-06-27T00:03:00,mcc,59.77
2022-06-27T00:04:00,mcc,57.79
2022-06-27T00:05:00,mcc,57.29
2022-06-27T00:06:00,mcc,69.25
2022-06-27T00:07:00,mcc,56.52
2022-06-27T00:08:00,mcc,55.92
2022-06-27T00:09:00,mcc,52.40
2022-06-27T00:10:00,mcc,53.44
2022-06-27T00:11:00,mcc,55.51
2022-06-27T00:12:00,mcc,55.41
2022-06-27T00:13:00,mcc,54.35
2022-06-27T00:14:00,mcc,55.60
2022-06-27T00:15:00,mcc,63.83
2022-06-27T00:16:00,mcc,54.52
2022-06-27T00:17:00,mcc,56.36
2022-06-27T00:18:00,mcc,54.41
2022-06-27T00:19:00,mcc,53.96
2022-06-27T00:20:00,mcc,53.22
2022-06-27T00:21:00,mcc,53.49
2022-06-27T00:22:00,mcc,54.23
2022-06-27T00:23:00,mcc,55.25
2022-06-27T00:24:00,mcc,53.30
2022-06-27T00:25:00,mcc,52.04
2022-06-27T00:26:00,mcc,51.10
2022-06-27T00:27:00,mcc,51.29
2022-06-27T00:28:00,mcc,48.96
2022-06-27T00:29:00,mcc,51.52
2022-06-27T00:30:00,mcc,51.47
2022-06-27T00:31:00,mcc,50.57
2022-06-27T00:32:00,mcc,60.40
2022-06-27T00:33:00,mcc,69.68
2022-06-27T00:34:00,mcc,59.70
2022-06-27T00:35:00,mcc,50.25
2022-06-27T00:36:00,mcc,50.84
2022-06-27T00:37:00,mcc,48.75
2022-06-27T00:38:00,mcc,48.96
2022-06-27T00:39:00,mcc,48.53
2022-06-27T00:40:00,mcc,48.91
2022-06-27T00:41:00,mcc,49.07
2022-06-27T00:42:00,mcc,48.26
2022-06-27T00:43:00,mcc,49.68
2022-06-27T00:44:00,mcc,48.48
2022-06-27T00:45:00,mcc,47.07
2022-06-27T00:46:00,mcc,48.67
2022-06-27T00:47:00,mcc,51.23
2022-06-27T00:48:00,mcc,52.03
2022-06-27T00:49:00,mcc,53.20
2022-06-27T00:50:00,mcc,52.59
2022-06-27T00:51:00,mcc,53.98
2022-06-27T00:52:00,mcc,56.05
2022-06-27T00:53:00,mcc,62.21
2022-06-27T00:54:00,mcc,55.41
2022-06-27T00:55:00,mcc,55.37
2022-06-27T00:56:00,mcc,58.04
2022-06-27T00:57:00,mcc,53.27
2022-06-27T00:58:00,mcc,55.41
2022-06-27T00:59:00,mcc,56.52
2022-06-27T01:00:00,mcc,52.36
2022-06-27T01:01:00,mcc,50.83
2022-06-27T01:02:00,mcc,49.47
2022-06-27T01:03:00,mcc,50.38
2022-06-27T01:04:00,mcc,49.41
2022-06-27T01:05:00,mcc,50.88
2022-06-27T01:06:00,mcc,52.00
2022-06-27T01:07:00,mcc,50.86
2022-06-27T01:08:00,mcc,53.27
2022-06-27T01:09:00,mcc,51.27
2022-06-27T01:10:00,mcc,52.11
2022-06-27T01:11:00,mcc,49.49
2022-06-27T01:12:00,mcc,50.89
2022-06-27T01:13:00,mcc,50.69
2022-06-27T01:14:00,mcc,48.18
2022-06-27T01:15:00,mcc,49.11
2022-06-27T01:16:00,mcc,48.08
2022-06-27T01:17:00,mcc,49.24
2022-06-27T01:18:00,mcc,50.16
2022-06-27T01:19:00,mcc,53.34
2022-06-27T01:20:00,mcc,51.62
2022-06-27T01:21:00,mcc,50.02
2022-06-27T01:22:00,mcc,51.28
2022-06-27T01:23:00,mcc,50.77
2022-06-27T01:24:00,mcc,51.26
2022-06-27T01:25:00,mcc,53.40
2022-06-27T01:26:00,mcc,51.12
2022-06-27T01:27:00,mcc,53.56
2022-06-27T01:28:00,mcc,53.17
2022-06-27T01:29:00,mcc,48.92
2022-06-27T01:30:00,mcc,49.04
2022-06-27T01:31:00,mcc,49.82
2022-06-27T01:32:00,mcc,46.75
2022-06-27T01:33:00,mcc,54.23
2022-06-27T01:34:00,mcc,45.39
2022-06-27T01:35:00,mcc,46.85
2022-06-27T01:36:00,mcc,47.05
2022-06-27T01:37:00,mcc,47.95
2022-06-27T01:38:00,mcc,47.35
2022-06-27T01:39:00,mcc,49.91
2022-06-27T01:40:00,mcc,49.04
2022-06-27T01:41:00,mcc,51.19
2022-06-27T01:42:00,mcc,50.73
2022-06-27T01:43:00,mcc,53.03
2022-06-27T01:44:00,mcc,53.68
2022-06-27T01:45:00,mcc,53.29
2022-06-27T01:46:00,mcc,56.69
2022-06-27T01:47:00,mcc,52.66
2022-06-27T01:48:00,mcc,51.75
2022-06-27T01:49:00,mcc,51.04
2022-06-27T01:50:00,mcc,49.83
2022-06-27T01:51:00,mcc,52.70
2022-06-27T01:52:00,mcc,63.32
2022-06-27T01:53:00,mcc,63.61
2022-06-27T01:54:00,mcc,51.50
2022-06-27T01:55:00,mcc,50.60
2022-06-27T01:56:00,mcc,53.00
2022-06-27T01:57:00,mcc,53.86
2022-06-27T01:58:00,mcc,50.65
2022-06-27T01:59:00,mcc,49.20
2022-06-27T02:00:00,mcc,48.38
2022-06-27T02:01:00,mcc,45.96
2022-06-27T02:02:00,mcc,46.35
2022-06-27T02:03:00,mcc,48.32
2022-06-27T02:04:00,mcc,47.40
2022-06-27T02:05:00,mcc,46.02
2022-06-27T02:06:00,mcc,45.43
2022-06-27T02:07:00,mcc,45.57
2022-06-27T02:08:00,mcc,45.85
2022-06-27T02:09:00,mcc,46.22
2022-06-27T02:10:00,mcc,44.25
2022-06-27T02:11:00,mcc,46.48
2022-06-27T02:12:00,mcc,44.69
2022-06-27T02:13:00,mcc,45.70
2022-06-27T02:14:00,mcc,46.77
2022-06-27T02:15:00,mcc,47.07
2022-06-27T02:16:00,mcc,47.63
2022-06-27T02:17:00,mcc,46.01
2022-06-27T02:18:00,mcc,47.88
2022-06-27T02:19:00,mcc,47.07
2022-06-27T02:20:00,mcc,47.69
2022-06-27T02:21:00,mcc,46.02
2022-06-27T02:22:00,mcc,48.87
2022-06-27T02:23:00,mcc,48.72
2022-06-27T02:24:00,mcc,48.63
2022-06-27T02:25:00,mcc,47.96
2022-06-27T02:26:00,mcc,45.70
2022-06-27T02:27:00,mcc,49.30
2022-06-27T02:28:00,mcc,47.33
2022-06-27T02:29:00,mcc,47.73
2022-06-27T02:30:00,mcc,51.05
2022-06-27T02:31:00,mcc,50.15
2022-06-27T02:32:00,mcc,47.58
2022-06-27T02:33:00,mcc,50.02
2022-06-27T02:34:00,mcc,56.08
2022-06-27T02:35:00,mcc,48.05
2022-06-27T02:36:00,mcc,49.08
2022-06-27T02:37:00,mcc,49.45
2022-06-27T02:38:00,mcc,50.13
2022-06-27T02:39:00,mcc,48.74
2022-06-27T02:40:00,mcc,47.73
2022-06-27T02:41:00,mcc,48.55
2022-06-27T02:42:00,mcc,47.92
2022-06-27T02:43:00,mcc,46.63
2022-06-27T02:44:00,mcc,47.35
2022-06-27T02:45:00,mcc,47.51
2022-06-27T02:46:00,mcc,49.59
2022-06-27T02:47:00,mcc,49.72
2022-06-27T02:48:00,mcc,51.19
2022-06-27T02:49:00,mcc,52.30
2022-06-27T02:50:00,mcc,50.72
2022-06-27T02:51:00,mcc,62.83
2022-06-27T02:52:00,mcc,59.88
2022-06-27T02:53:00,mcc,67.87
2022-06-27T02:54:00,mcc,60.87
2022-06-27T02:55:00,mcc,50.37
2022-06-27T02:56:00,mcc,49.99
2022-06-27T02:57:00,mcc,51.40
2022-06-27T02:58:00,mcc,48.98
2022-06-27T02:59:00,mcc,49.41
2022-06-27T03:00:00,mcc,49.12
2022-06-27T03:01:00,mcc,48.44
2022-06-27T03:02:00,mcc,47.30
2022-06-27T03:03:00,mcc,48.55
2022-06-27T03:04:00,mcc,44.48
2022-06-27T03:05:00,mcc,43.50
2022-06-27T03:06:00,mcc,44.93
2022-06-27T03:07:00,mcc,45.13
2022-06-27T03:08:00,mcc,44.08
2022-06-27T03:09:00,mcc,44.37
2022-06-27T03:10:00,mcc,46.11
2022-06-27T03:11:00,mcc,48.62
2022-06-27T03:12:00,mcc,48.92
2022-06-27T03:13:00,mcc,57.13
2022-06-27T03:14:00,mcc,49.18
2022-06-27T03:15:00,mcc,48.22
2022-06-27T03:16:00,mcc,47.35
2022-06-27T03:17:00,mcc,61.44
2022-06-27T03:18:00,mcc,50.13
2022-06-27T03:19:00,mcc,49.16
2022-06-27T03:20:00,mcc,52.98
2022-06-27T03:21:00,mcc,52.04
2022-06-27T03:22:00,mcc,51.66
2022-06-27T03:23:00,mcc,52.55
2022-06-27T03:24:00,mcc,51.74
2022-06-27T03:25:00,mcc,49.55
2022-06-27T03:26:00,mcc,52.83
2022-06-27T03:27:00,mcc,51.94
2022-06-27T03:28:00,mcc,50.67
2022-06-27T03:29:00,mcc,48.57
2022-06-27T03:30:00,mcc,49.41
2022-06-27T03:31:00,mcc,49.94
2022-06-27T03:32:00,mcc,49.35
2022-06-27T03:33:00,mcc,49.01
2022-06-27T03:34:00,mcc,46.87
2022-06-27T03:35:00,mcc,47.24
2022-06-27T03:36:00,mcc,45.20
2022-06-27T03:37:00,mcc,47.68
2022-06-27T03:38:00,mcc,46.50
2022-06-27T03:39:00,mcc,46.37
2022-06-27T03:40:00,mcc,45.49
2022-06-27T03:41:00,mcc,45.65
2022-06-27T03:42:00,mcc,45.76
2022-06-27T03:43:00,mcc,45.35
2022-06-27T03:44:00,mcc,45.31
2022-06-27T03:45:00,mcc,46.25
2022-06-27T03:46:00,mcc,46.37
2022-06-27T03:47:00,mcc,46.66
2022-06-27T03:48:00,mcc,47.79
2022-06-27T03:49:00,mcc,46.82
2022-06-27T03:50:00,mcc,48.97
2022-06-27T03:51:00,mcc,57.03
2022-06-27T03:52:00,mcc,47.93
2022-06-27T03:53:00,mcc,46.86
2022-06-27T03:54:00,mcc,44.90
2022-06-27T03:55:00,mcc,48.51
2022-06-27T03:56:00,mcc,48.36
2022-06-27T03:57:00,mcc,50.57
2022-06-27T03:58:00,mcc,51.22
2022-06-27T03:59:00,mcc,49.88
2022-06-27T04:00:00,mcc,52.95
2022-06-27T04:01:00,mcc,51.24
2022-06-27T04:02:00,mcc,50.20
2022-06-27T04:03:00,mcc,51.10
2022-06-27T04:04:00,mcc,49.08
2022-06-27T04:05:00,mcc,52.35
2022-06-27T04:06:00,mcc,51.23
2022-06-27T04:07:00,mcc,48.01
2022-06-27T04:08:00,mcc,45.79
2022-06-27T04:09:00,mcc,45.76
2022-06-27T04:10:00,mcc,48.95
2022-06-27T04:11:00,mcc,55.25
2022-06-27T04:12:00,mcc,47.70
2022-06-27T04:13:00,mcc,48.86
2022-06-27T04:14:00,mcc,47.90
2022-06-27T04:15:00,mcc,49.82
2022-06-27T04:16:00,mcc,49.24
2022-06-27T04:17:00,mcc,49.61
2022-06-27T04:18:00,mcc,51.14
2022-06-27T04:19:00,mcc,50.55
2022-06-27T04:20:00,mcc,52.43
2022-06-27T04:21:00,mcc,51.74
2022-06-27T04:22:00,mcc,48.81
2022-06-27T04:23:00,mcc,44.55
2022-06-27T04:24:00,mcc,44.32
2022-06-27T04:25:00,mcc,43.46
2022-06-27T04:26:00,mcc,44.55
2022-06-27T04:27:00,mcc,46.90
2022-06-27T04:28:00,mcc,47.41
2022-06-27T04:29:00,mcc,47.17
2022-06-27T04:30:00,mcc,47.38
2022-06-27T04:31:00,mcc,55.18
2022-06-27T04:32:00,mcc,48.67
2022-06-27T04:33:00,mcc,46.99
2022-06-27T04:34:00,mcc,47.91
2022-06-27T04:35:00,mcc,52.10
2022-06-27T04:36:00,mcc,50.69
2022-06-27T04:37:00,mcc,51.50
2022-06-27T04:38:00,mcc,47.70
2022-06-27T04:39:00,mcc,49.00
2022-06-27T04:40:00,mcc,47.85
2022-06-27T04:41:00,mcc,47.82
2022-06-27T04:42:00,mcc,46.89
2022-06-27T04:43:00,mcc,46.95
2022-06-27T04:44:00,mcc,48.43
2022-06-27T04:45:00,mcc,50.68
2022-06-27T04:46:00,mcc,50.19
2022-06-27T04:47:00,mcc,50.84
2022-06-27T04:48:00,mcc,51.39
2022-06-27T04:49:00,mcc,61.51
2022-06-27T04:50:00,mcc,50.57
2022-06-27T04:51:00,mcc,50.30
2022-06-27T04:52:00,mcc,49.22
2022-06-27T04:53:00,mcc,49.57
2022-06-27T04:54:00,mcc,49.11
2022-06-27T04:55:00,mcc,51.30
2022-06-27T04:56:00,mcc,49.13
2022-06-27T04:57:00,mcc,49.67
2022-06-27T04:58:00,mcc,47.95
2022-06-27T04:59:00,mcc,50.94
2022-06-27T05:00:00,mcc,51.74
2022-06-27T05:01:00,mcc,49.81
2022-06-27T05:02:00,mcc,48.65
2022-06-27T05:03:00,mcc,51.68
2022-06-27T05:04:00,mcc,48.22
2022-06-27T05:05:00,mcc,47.23
2022-06-27T05:06:00,mcc,48.76
2022-06-27T05:07:00,mcc,47.93
2022-06-27T05:08:00,mcc,46.84
2022-06-27T05:09:00,mcc,45.41
2022-06-27T05:10:00,mcc,65.13
2022-06-27T05:11:00,mcc,57.13
2022-06-27T05:12:00,mcc,54.19
2022-06-27T05:13:00,mcc,48.97
2022-06-27T05:14:00,mcc,47.42
2022-06-27T05:15:00,mcc,48.27
2022-06-27T05:16:00,mcc,47.68
2022-06-27T05:17:00,mcc,46.13
2022-06-27T05:18:00,mcc,47.12
2022-06-27T05:19:00,mcc,44.44
2022-06-27T05:20:00,mcc,47.40
2022-06-27T05:21:00,mcc,47.51
2022-06-27T05:22:00,mcc,45.22
2022-06-27T05:23:00,mcc,44.93
2022-06-27T05:24:00,mcc,45.01
2022-06-27T05:25:00,mcc,43.98
2022-06-27T05:26:00,mcc,46.97
2022-06-27T05:27:00,mcc,47.08
2022-06-27T05:28:00,mcc,45.04
2022-06-27T05:29:00,mcc,45.78
2022-06-27T05:30:00,mcc,45.02
2022-06-27T05:31:00,mcc,45.91
2022-06-27T05:32:00,mcc,46.50
2022-06-27T05:33:00,mcc,48.65
2022-06-27T05:34:00,mcc,48.14
2022-06-27T05:35:00,mcc,45.20
2022-06-27T05:36:00,mcc,46.46
2022-06-27T05:37:00,mcc,47.86
2022-06-27T05:38:00,mcc,45.78
2022-06-27T05:39:00,mcc,46.23
2022-06-27T05:40:00,mcc,45.47
2022-06-27T05:41:00,mcc,47.76
2022-06-27T05:42:00,mcc,49.18
2022-06-27T05:43:00,mcc,49.48
2022-06-27T05:44:00,mcc,49.27
2022-06-27T05:45:00,mcc,48.11
2022-06-27T05:46:00,mcc,48.68
2022-06-27T05:47:00,mcc,47.95
2022-06-27T05:48:00,mcc,50.36
2022-06-27T05:49:00,mcc,49.17
2022-06-27T05:50:00,mcc,47.45
2022-06-27T05:51:00,mcc,46.92
2022-06-27T05:52:00,mcc,48.88
2022-06-27T05:53:00,mcc,49.13
2022-06-27T05:54:00,mcc,47.65
2022-06-27T05:55:00,mcc,49.06
2022-06-27T05:56:00,mcc,45.70
2022-06-27T05:57:00,mcc,48.29
2022-06-27T05:58:00,mcc,48.33
2022-06-27T05:59:00,mcc,45.00
2022-06-27T06:00:00,mcc,44.90
2022-06-27T06:01:00,mcc,46.36
2022-06-27T06:02:00,mcc,48.31
2022-06-27T06:03:00,mcc,47.04
2022-06-27T06:04:00,mcc,46.59
2022-06-27T06:05:00,mcc,49.48
2022-06-27T06:06:00,mcc,49.14
2022-06-27T06:07:00,mcc,62.66
2022-06-27T06:08:00,mcc,68.54
2022-06-27T06:09:00,mcc,50.46
2022-06-27T06:10:00,mcc,49.85
2022-06-27T06:11:00,mcc,48.69
2022-06-27T06:12:00,mcc,48.54
2022-06-27T06:13:00,mcc,44.70
2022-06-27T06:14:00,mcc,46.80
2022-06-27T06:15:00,mcc,49.77
2022-06-27T06:16:00,mcc,48.63
2022-06-27T06:17:00,mcc,48.72
2022-06-27T06:18:00,mcc,48.94
2022-06-27T06:19:00,mcc,46.50
2022-06-27T06:20:00,mcc,47.62
2022-06-27T06:21:00,mcc,47.79
2022-06-27T06:22:00,mcc,46.67
2022-06-27T06:23:00,mcc,48.30
2022-06-27T06:24:00,mcc,48.94
2022-06-27T06:25:00,mcc,57.43
2022-06-27T06:26:00,mcc,56.04
2022-06-27T06:27:00,mcc,55.27
2022-06-27T06:28:00,mcc,56.40
2022-06-27T06:29:00,mcc,56.21
2022-06-27T06:30:00,mcc,57.78
2022-06-27T06:31:00,mcc,54.61
2022-06-27T06:32:00,mcc,56.30
2022-06-27T06:33:00,mcc,58.03
2022-06-27T06:34:00,mcc,57.10
2022-06-27T06:35:00,mcc,58.47
2022-06-27T06:36:00,mcc,59.29
2022-06-27T06:37:00,mcc,60.62
2022-06-27T06:38:00,mcc,57.13
2022-06-27T06:39:00,mcc,58.05
2022-06-27T06:40:00,mcc,59.33
2022-06-27T06:41:00,mcc,57.30
2022-06-27T06:42:00,mcc,58.65
2022-06-27T06:43:00,mcc,55.00
2022-06-27T06:44:00,mcc,57.11
2022-06-27T06:45:00,mcc,55.30
2022-06-27T06:46:00,mcc,54.64
2022-06-27T06:47:00,mcc,65.32
2022-06-27T06:48:00,mcc,53.94
2022-06-27T06:49:00,mcc,54.94
2022-06-27T06:50:00,mcc,55.30
2022-06-27T06:51:00,mcc,56.88
2022-06-27T06:52:00,mcc,56.26
2022-06-27T06:53:00,mcc,57.89
2022-06-27T06:54:00,mcc,57.87
2022-06-27T06:55:00,mcc,58.05
2022-06-27T06:56:00,mcc,58.43
2022-06-27T06:57:00,mcc,57.08
2022-06-27T06:58:00,mcc,58.06
2022-06-27T06:59:00,mcc,59.83
2022-06-27T07:00:00,mcc,58.79
2022-06-27T07:01:00,mcc,59.52
2022-06-27T07:02:00,mcc,61.66
2022-06-27T07:03:00,mcc,61.04
2022-06-27T07:04:00,mcc,68.83
2022-06-27T07:05:00,mcc,60.11
2022-06-27T07:06:00,mcc,64.12
2022-06-27T07:07:00,mcc,73.24
2022-06-27T07:08:00,mcc,62.40
2022-06-27T07:09:00,mcc,61.98
2022-06-27T07:10:00,mcc,55.45
2022-06-27T07:11:00,mcc,56.45
2022-06-27T07:12:00,mcc,55.70
2022-06-27T07:13:00,mcc,56.88
2022-06-27T07:14:00,mcc,60.31
2022-06-27T07:15:00,mcc,62.96
2022-06-27T07:16:00,mcc,65.15
2022-06-27T07:17:00,mcc,66.73
2022-06-27T07:18:00,mcc,65.07
2022-06-27T07:19:00,mcc,60.26
2022-06-27T07:20:00,mcc,60.71
2022-06-27T07:21:00,mcc,59.33
2022-06-27T07:22:00,mcc,62.16
2022-06-27T07:23:00,mcc,70.36
2022-06-27T07:24:00,mcc,85.10
2022-06-27T07:25:00,mcc,75.10
2022-06-27T07:26:00,mcc,73.92
2022-06-27T07:27:00,mcc,76.51
2022-06-27T07:28:00,mcc,74.49
2022-06-27T07:29:00,mcc,74.85
2022-06-27T07:30:00,mcc,75.15
2022-06-27T07:31:00,mcc,69.88
2022-06-27T07:32:00,mcc,71.73
2022-06-27T07:33:00,mcc,72.06
2022-06-27T07:34:00,mcc,73.62
2022-06-27T07:35:00,mcc,65.40
2022-06-27T07:36:00,mcc,73.28
2022-06-27T07:37:00,mcc,75.05
2022-06-27T07:38:00,mcc,69.97
2022-06-27T07:39:00,mcc,69.38
2022-06-27T07:40:00,mcc,70.29
2022-06-27T07:41:00,mcc,70.47
2022-06-27T07:42:00,mcc,67.87
2022-06-27T07:43:00,mcc,67.59
2022-06-27T07:44:00,mcc,67.56
2022-06-27T07:45:00,mcc,69.54
2022-06-27T07:46:00,mcc,68.74
2022-06-27T07:47:00,mcc,68.64
2022-06-27T07:48:00,mcc,60.01
2022-06-27T07:49:00,mcc,52.75
2022-06-27T07:50:00,mcc,57.81
2022-06-27T07:51:00,mcc,54.73
2022-06-27T07:52:00,mcc,58.44
2022-06-27T07:53:00,mcc,57.23
2022-06-27T07:54:00,mcc,56.24
2022-06-27T07:55:00,mcc,53.07
2022-06-27T07:56:00,mcc,53.40
2022-06-27T07:57:00,mcc,53.74
2022-06-27T07:58:00,mcc,55.14
2022-06-27T07:59:00,mcc,56.15
2022-06-27T08:00:00,mcc,55.87
2022-06-27T08:01:00,mcc,54.27
2022-06-27T08:02:00,mcc,55.23
2022-06-27T08:03:00,mcc,55.51
2022-06-27T08:04:00,mcc,60.94
2022-06-27T08:05:00,mcc,60.02
2022-06-27T08:06:00,mcc,59.47
2022-06-27T08:07:00,mcc,69.15
2022-06-27T08:08:00,mcc,61.04
2022-06-27T08:09:00,mcc,58.21
2022-06-27T08:10:00,mcc,77.14
2022-06-27T08:11:00,mcc,55.63
2022-06-27T08:12:00,mcc,53.81
2022-06-27T08:13:00,mcc,53.83
2022-06-27T08:14:00,mcc,55.69
2022-06-27T08:15:00,mcc,55.33
2022-06-27T08:16:00,mcc,54.90
2022-06-27T08:17:00,mcc,53.71
2022-06-27T08:18:00,mcc,53.37
2022-06-27T08:19:00,mcc,53.01
2022-06-27T08:20:00,mcc,55.82
2022-06-27T08:21:00,mcc,56.08
2022-06-27T08:22:00,mcc,73.22
2022-06-27T08:23:00,mcc,55.97
2022-06-27T08:24:00,mcc,54.37
2022-06-27T08:25:00,mcc,54.42
2022-06-27T08:26:00,mcc,62.45
2022-06-27T08:27:00,mcc,54.56
2022-06-27T08:28:00,mcc,53.53
2022-06-27T08:29:00,mcc,54.15
2022-06-27T08:30:00,mcc,55.76
2022-06-27T08:31:00,mcc,58.50
2022-06-27T08:32:00,mcc,58.98
2022-06-27T08:33:00,mcc,58.38
2022-06-27T08:34:00,mcc,58.47
2022-06-27T08:35:00,mcc,58.29
2022-06-27T08:36:00,mcc,57.30
2022-06-27T08:37:00,mcc,55.99
2022-06-27T08:38:00,mcc,57.53
2022-06-27T08:39:00,mcc,55.69
2022-06-27T08:40:00,mcc,55.99
2022-06-27T08:41:00,mcc,54.11
2022-06-27T08:42:00,mcc,53.84
2022-06-27T08:43:00,mcc,53.86
2022-06-27T08:44:00,mcc,55.40
2022-06-27T08:45:00,mcc,54.97
2022-06-27T08:46:00,mcc,63.63
2022-06-27T08:47:00,mcc,54.57
2022-06-27T08:48:00,mcc,54.78
2022-06-27T08:49:00,mcc,53.01
2022-06-27T08:50:00,mcc,52.61
2022-06-27T08:51:00,mcc,54.28
2022-06-27T08:52:00,mcc,55.61
2022-06-27T08:53:00,mcc,56.79
2022-06-27T08:54:00,mcc,55.50
2022-06-27T08:55:00,mcc,54.08
2022-06-27T08:56:00,mcc,55.06
2022-06-27T08:57:00,mcc,54.31
2022-06-27T08:58:00,mcc,55.94
2022-06-27T08:59:00,mcc,55.74
2022-06-27T09:00:00,mcc,57.57
2022-06-27T09:01:00,mcc,57.46
2022-06-27T09:02:00,mcc,58.20
2022-06-27T09:03:00,mcc,57.09
2022-06-27T09:04:00,mcc,56.41
2022-06-27T09:05:00,mcc,65.80
2022-06-27T09:06:00,mcc,58.10
2022-06-27T09:07:00,mcc,58.22
2022-06-27T09:08:00,mcc,69.34
2022-06-27T09:09:00,mcc,72.72
2022-06-27T09:10:00,mcc,59.68
2022-06-27T09:11:00,mcc,59.78
2022-06-27T09:12:00,mcc,56.20
2022-06-27T09:13:00,mcc,57.14
2022-06-27T09:14:00,mcc,56.66
2022-06-27T09:15:00,mcc,56.54
2022-06-27T09:16:00,mcc,56.03
2022-06-27T09:17:00,mcc,55.16
2022-06-27T09:18:00,mcc,56.16
2022-06-27T09:19:00,mcc,58.78
2022-06-27T09:20:00,mcc,57.47
2022-06-27T09:21:00,mcc,57.55
2022-06-27T09:22:00,mcc,57.06
2022-06-27T09:23:00,mcc,58.17
2022-06-27T09:24:00,mcc,57.97
2022-06-27T09:25:00,mcc,58.38
2022-06-27T09:26:00,mcc,57.82
2022-06-27T09:27:00,mcc,55.85
2022-06-27T09:28:00,mcc,54.39
2022-06-27T09:29:00,mcc,56.61
2022-06-27T09:30:00,mcc,57.99
2022-06-27T09:31:00,mcc,59.19
2022-06-27T09:32:00,mcc,59.62
2022-06-27T09:33:00,mcc,57.59
2022-06-27T09:34:00,mcc,57.50
2022-06-27T09:35:00,mcc,57.29
2022-06-27T09:36:00,mcc,58.36
2022-06-27T09:37:00,mcc,58.17
2022-06-27T09:38:00,mcc,58.46
2022-06-27T09:39:00,mcc,55.82
2022-06-27T09:40:00,mcc,55.84
2022-06-27T09:41:00,mcc,55.80
2022-06-27T09:42:00,mcc,56.66
2022-06-27T09:43:00,mcc,57.23
2022-06-27T09:44:00,mcc,65.35
2022-06-27T09:45:00,mcc,57.29
2022-06-27T09:46:00,mcc,56.41
2022-06-27T09:47:00,mcc,57.11
2022-06-27T09:48:00,mcc,67.94
2022-06-27T09:49:00,mcc,68.33
2022-06-27T09:50:00,mcc,67.98
2022-06-27T09:51:00,mcc,65.01
2022-06-27T09:52:00,mcc,63.98
2022-06-27T09:53:00,mcc,63.19
2022-06-27T09:54:00,mcc,65.02
2022-06-27T09:55:00,mcc,64.46
2022-06-27T09:56:00,mcc,65.59
2022-06-27T09:57:00,mcc,59.08
2022-06-27T09:58:00,mcc,59.31
2022-06-27T09:59:00,mcc,60.35
2022-06-27T10:00:00,mcc,60.95
2022-06-27T10:01:00,mcc,59.40
2022-06-27T10:02:00,mcc,59.27
2022-06-27T10:03:00,mcc,67.06
2022-06-27T10:04:00,mcc,58.76
2022-06-27T10:05:00,mcc,59.01
2022-06-27T10:06:00,mcc,57.69
2022-06-27T10:07:00,mcc,59.84
2022-06-27T10:08:00,mcc,66.63
2022-06-27T10:09:00,mcc,60.84
2022-06-27T10:10:00,mcc,59.01
2022-06-27T10:11:00,mcc,59.85
2022-06-27T10:12:00,mcc,62.14
2022-06-27T10:13:00,mcc,78.35
2022-06-27T10:14:00,mcc,70.72
2022-06-27T10:15:00,mcc,72.09
2022-06-27T10:16:00,mcc,58.05
2022-06-27T10:17:00,mcc,56.90
2022-06-27T10:18:00,mcc,56.52
2022-06-27T10:19:00,mcc,55.31
2022-06-27T10:20:00,mcc,57.22
2022-06-27T10:21:00,mcc,58.40
2022-06-27T10:22:00,mcc,60.27
2022-06-27T10:23:00,mcc,59.32
2022-06-27T10:24:00,mcc,58.72
2022-06-27T10:25:00,mcc,66.58
2022-06-27T10:26:00,mcc,60.80
2022-06-27T10:27:00,mcc,61.67
2022-06-27T10:28:00,mcc,60.61
2022-06-27T10:29:00,mcc,59.99
2022-06-27T10:30:00,mcc,57.97
2022-06-27T10:31:00,mcc,69.52
2022-06-27T10:32:00,mcc,70.21
2022-06-27T10:33:00,mcc,59.59
2022-06-27T10:34:00,mcc,62.02
2022-06-27T10:35:00,mcc,64.23
2022-06-27T10:36:00,mcc,71.39
2022-06-27T10:37:00,mcc,62.50
2022-06-27T10:38:00,mcc,60.37
2022-06-27T10:39:00,mcc,60.02
2022-06-27T10:40:00,mcc,59.83
2022-06-27T10:41:00,mcc,57.83
2022-06-27T10:42:00,mcc,74.18
2022-06-27T10:43:00,mcc,57.91
2022-06-27T10:44:00,mcc,57.98
2022-06-27T10:45:00,mcc,56.69
2022-06-27T10:46:00,mcc,57.55
2022-06-27T10:47:00,mcc,57.92
2022-06-27T10:48:00,mcc,66.28
2022-06-27T10:49:00,mcc,78.77
2022-06-27T10:50:00,mcc,77.41
2022-06-27T10:51:00,mcc,75.98
2022-06-27T10:52:00,mcc,75.27
2022-06-27T10:53:00,mcc,76.15
2022-06-27T10:54:00,mcc,78.41
2022-06-27T10:55:00,mcc,78.62
2022-06-27T10:56:00,mcc,78.49
2022-06-27T10:57:00,mcc,77.81
2022-06-27T10:58:00,mcc,77.66
2022-06-27T10:59:00,mcc,78.93
2022-06-27T11:00:00,mcc,88.12
2022-06-27T11:01:00,mcc,79.56
2022-06-27T11:02:00,mcc,79.36
2022-06-27T11:03:00,mcc,80.61
2022-06-27T11:04:00,mcc,88.40
2022-06-27T11:05:00,mcc,89.22
2022-06-27T11:06:00,mcc,80.10
2022-06-27T11:07:00,mcc,78.08
2022-06-27T11:08:00,mcc,78.45
2022-06-27T11:09:00,mcc,76.69
2022-06-27T11:10:00,mcc,76.95
2022-06-27T11:11:00,mcc,86.08
2022-06-27T11:12:00,mcc,74.15
2022-06-27T11:13:00,mcc,74.82
2022-06-27T11:14:00,mcc,76.21
2022-06-27T11:15:00,mcc,74.22
2022-06-27T11:16:00,mcc,74.06
2022-06-27T11:17:00,mcc,73.76
2022-06-27T11:18:00,mcc,78.00
2022-06-27T11:19:00,mcc,78.23
2022-06-27T11:20:00,mcc,85.43
2022-06-27T11:21:00,mcc,85.50
2022-06-27T11:22:00,mcc,77.69
2022-06-27T11:23:00,mcc,77.02
2022-06-27T11:24:00,mcc,77.91
2022-06-27T11:25:00,mcc,84.83
2022-06-27T11:26:00,mcc,80.95
2022-06-27T11:27:00,mcc,77.65
2022-06-27T11:28:00,mcc,77.00
2022-06-27T11:29:00,mcc,77.06
2022-06-27T11:30:00,mcc,84.58
2022-06-27T11:31:00,mcc,78.16
2022-06-27T11:32:00,mcc,78.64
2022-06-27T11:33:00,mcc,77.23
2022-06-27T11:34:00,mcc,85.72
2022-06-27T11:35:00,mcc,78.77
2022-06-27T11:36:00,mcc,76.48
2022-06-27T11:37:00,mcc,76.62
2022-06-27T11:38:00,mcc,77.32
2022-06-27T11:39:00,mcc,85.37
2022-06-27T11:40:00,mcc,74.72
2022-06-27T11:41:00,mcc,83.48
2022-06-27T11:42:00,mcc,72.74
2022-06-27T11:43:00,mcc,73.50
2022-06-27T11:44:00,mcc,73.79
2022-06-27T11:45:00,mcc,73.53
2022-06-27T11:46:00,mcc,74.07
2022-06-27T11:47:00,mcc,72.36
2022-06-27T11:48:00,mcc,73.80
2022-06-27T11:49:00,mcc,73.85
2022-06-27T11:50:00,mcc,74.84
2022-06-27T11:51:00,mcc,73.47
2022-06-27T11:52:00,mcc,74.65
2022-06-27T11:53:00,mcc,73.69
2022-06-27T11:54:00,mcc,74.08
2022-06-27T11:55:00,mcc,75.29
2022-06-27T11:56:00,mcc,76.09
2022-06-27T11:57:00,mcc,76.07
2022-06-27T11:58:00,mcc,72.83
2022-06-27T11:59:00,mcc,73.91
2022-06-27T12:00:00,mcc,82.63
2022-06-27T12:01:00,mcc,74.79
2022-06-27T12:02:00,mcc,74.67
2022-06-27T12:03:00,mcc,76.45
2022-06-27T12:04:00,mcc,76.38
2022-06-27T12:05:00,mcc,77.34
2022-06-27T12:06:00,mcc,77.10
2022-06-27T12:07:00,mcc,75.95
2022-06-27T12:08:00,mcc,77.23
2022-06-27T12:09:00,mcc,77.17
2022-06-27T12:10:00,mcc,76.91
2022-06-27T12:11:00,mcc,77.11
2022-06-27T12:12:00,mcc,78.64
2022-06-27T12:13:00,mcc,76.04
2022-06-27T12:14:00,mcc,88.86
2022-06-27T12:15:00,mcc,88.86
2022-06-27T12:16:00,mcc,75.55
2022-06-27T12:17:00,mcc,77.14
2022-06-27T12:18:00,mcc,76.78
2022-06-27T12:19:00,mcc,82.01
2022-06-27T12:20:00,mcc,74.96
2022-06-27T12:21:00,mcc,74.45
2022-06-27T12:22:00,mcc,73.28
2022-06-27T12:23:00,mcc,73.15
2022-06-27T12:24:00,mcc,73.30
2022-06-27T12:25:00,mcc,75.78
2022-06-27T12:26:00,mcc,76.39
2022-06-27T12:27:00,mcc,77.38
2022-06-27T12:28:00,mcc,77.67
2022-06-27T12:29:00,mcc,77.45
2022-06-27T12:30:00,mcc,75.74
2022-06-27T12:31:00,mcc,80.82
2022-06-27T12:32:00,mcc,80.44
2022-06-27T12:33:00,mcc,80.13
2022-06-27T12:34:00,mcc,79.56
2022-06-27T12:35:00,mcc,77.71
2022-06-27T12:36:00,mcc,78.56
2022-06-27T12:37:00,mcc,79.16
2022-06-27T12:38:00,mcc,80.55
2022-06-27T12:39:00,mcc,87.50
2022-06-27T12:40:00,mcc,80.43
2022-06-27T12:41:00,mcc,78.40
2022-06-27T12:42:00,mcc,78.51
2022-06-27T12:43:00,mcc,77.85
2022-06-27T12:44:00,mcc,75.62
2022-06-27T12:45:00,mcc,75.60
2022-06-27T12:46:00,mcc,74.64
2022-06-27T12:47:00,mcc,74.22
2022-06-27T12:48:00,mcc,76.02
2022-06-27T12:49:00,mcc,75.23
2022-06-27T12:50:00,mcc,76.17
2022-06-27T12:51:00,mcc,74.34
2022-06-27T12:52:00,mcc,73.55
2022-06-27T12:53:00,mcc,73.93
2022-06-27T12:54:00,mcc,77.34
2022-06-27T12:55:00,mcc,88.45
2022-06-27T12:56:00,mcc,75.61
2022-06-27T12:57:00,mcc,75.20
2022-06-27T12:58:00,mcc,84.27
2022-06-27T12:59:00,mcc,76.36
2022-06-27T13:00:00,mcc,80.59
2022-06-27T13:01:00,mcc,81.99
2022-06-27T13:02:00,mcc,76.49
2022-06-27T13:03:00,mcc,79.24
2022-06-27T13:04:00,mcc,78.41
2022-06-27T13:05:00,mcc,77.02
2022-06-27T13:06:00,mcc,76.24
2022-06-27T13:07:00,mcc,74.85
2022-06-27T13:08:00,mcc,78.52
2022-06-27T13:09:00,mcc,78.64
2022-06-27T13:10:00,mcc,78.99
2022-06-27T13:11:00,mcc,77.43
2022-06-27T13:12:00,mcc,76.15
2022-06-27T13:13:00,mcc,75.90
2022-06-27T13:14:00,mcc,74.41
2022-06-27T13:15:00,mcc,75.98
2022-06-27T13:16:00,mcc,77.61
2022-06-27T13:17:00,mcc,77.99
2022-06-27T13:18:00,mcc,84.49